Regional Weather Roundup
Issued by NWS Charleston, SC

Current Version | Previous Version | Text Only | Print | Product List | Glossary Off
Versions: 1 2 3 4 5 6 7 8 9 10 11 12 13 14 15 16 17 18 19 20 21 22 23 24 25 26 27 28 29 30 31 32 33 34 35 36 37 38 39 40 41 42 43 44 45 46 47 48 49 50

000
ASUS42 KCHS 060427
RWRCHS

REGIONAL WEATHER ROUNDUP
NATIONAL WEATHER SERVICE CHARLESTON SC
1200 AM EDT MON JUL 06 2015

NOTE: "FAIR" INDICATES FEW OR NO CLOUDS BELOW 12,000 FEET WITH NO
SIGNIFICANT WEATHER AND/OR OBSTRUCTIONS TO VISIBILITY.

NOT ALL STATIONS ARE QUALITY CONTROLLED BY THE NATIONAL
WEATHER SERVICE. USE DATA WITH CAUTION...ESPECIALLY
DEWPOINT OBSERVATIONS.

SCZ027-030-031-034>040-042>050-060500-
...SOUTHEAST SOUTH CAROLINA...

CITY           SKY/WX    TMP DP  RH WIND       PRES   REMARKS
N CHARLESTON   MOCLDY    76  70  82 SW5       30.12R
WATERFRONT PAR   N/A     78  71  79 W5        30.09R
MOUNT PLEASANT FAIR      79  72  78 SW6       30.12R
JOHNS ISLAND   FAIR      73  72  94 CALM      30.12S
PINOPOLIS      NOT AVBL
MONCKS CORNER  FAIR      73  72  94 CALM      30.12S
SUMMERVILLE    FAIR      72  72 100 CALM      30.13S
BEAUFORT MCAS  PTCLDY    72  70  93 W5        30.13R
BEAUFORT ARPT  FAIR      73  73 100 W5        30.12R
HILTON HEAD IS PTCLDY    73  72  94 SW6       30.14R
WALTERBORO     MOCLDY    70  70 100 CALM      30.13S
ALLENDALE      CLOUDY    72  72 100 CALM      30.12R

...SOUTHERN MIDLANDS AND PEE DEE...

CITY           SKY/WX    TMP DP  RH WIND       PRES   REMARKS
GEORGETOWN     NOT AVBL
KINGSTREE      NOT AVBL
ORANGEBURG     PTCLDY    71  69  93 S5        30.12R
BARNWELL       FAIR      72  72 100 CALM      30.12S
AIKEN          NOT AVBL
MANNING        RAIN      73  70  88 CALM      30.11S
COLUMBIA       CLEAR     73  69  87 SW3       30.09F
SUMTER         PTCLDY    72  69  90 SW5       30.09F
FLORENCE       MOCLDY    76  73  91 CALM      30.11S
MYRTLE BEACH   MOCLDY    81  73  78 SW7       30.13F
N MYRTLE BEACH MOCLDY    81  76  84 S13       30.11S

$$

GAZ063-065-086>088-099>101-113>116-118-119-134>141-150-060500-
...SOUTHEAST GEORGIA...

CITY           SKY/WX    TMP DP  RH WIND       PRES   REMARKS
SAVANNAH ARPT  PTCLDY    70  68  93 S3        30.14R
HUNTER AAF     PTCLDY    70  70 100 S3        30.12R
FORT STEWART   PTCLDY    72  69  91 SW6       30.11R
STATESBORO     NOT AVBL
SYLVANIA       PTCLDY    73  73 100 CALM      30.13S
CLAXTON        MOCLDY    72  72 100 SW3       30.13S

...CSRA...CENTRAL AND FAR SOUTHEAST GEORGIA...

CITY           SKY/WX    TMP DP  RH WIND       PRES   REMARKS
THOMSON        CLEAR     75  72  89 CALM      30.16S
AUGUSTA-BUSH   PTCLDY    72  71  97 CALM      30.10S
AUGUSTA-DANIEL CLEAR     75  72  90 SW5       30.11F
SWAINSBORO     FAIR     N/A N/A N/A CALM      30.13S
VIDALIA        CLOUDY    73  72  94 SW6       30.14R
EASTMAN        FAIR      74  74 100 CALM      30.15F
HAZLEHURST     FAIR      74  74 100 S3        30.13S
ALMA           CLOUDY    73  71  93 SW6       30.14S
WAYCROSS       CLOUDY    74  74 100 W5        30.15R
JESUP          FAIR      72  72 100 W3        30.14S
BAXLEY         CLOUDY    73  72  94 CALM      30.13F
BRUNSWICK      CLOUDY    72  70  94 CALM      30.15S
SAINT SIMONS   MOCLDY    72  70  93 W5        30.14R

$$

SCZ027-028-034-036>038-045-046-048>050-GAZ119-141-060500-
...LAKE AND SUPPLEMENTAL COASTAL OBSERVATIONS...

STATION/POSITION TIME  TEMP    WIND        PRES    WAVE   SWELL
                       AIR SEA DIR/SP/G            HT/PER HT/PER/DIR
                 (UTC) (F)     (DEG/KT/KT) (MB)    (FT/S) (FT/S/D)
UPR LAKE MARION  NOT AVBL
WINYAH BAY       0300   81     190/  8     1018.0F
LAKE MURRAY      0300   76     190/  7/  9 1018.6R
ACE BASIN NERRS  NOT AVBL
FORT PULASKI     0400   74 83  250/  5/  7 1020.8R
SAPELO ISLAND    0400   73     250/  8     1021.0R

$$

ANZ835-935-AMZ111-154-330-350-352-354-370-450-454-472-060500-
...C-MAN AND BUOY OBSERVATIONS...

STATION/POSITION TIME  TEMP    WIND        PRES    WAVE   SWELL
                       AIR SEA DIR/SP/G            HT/PER HT/PER/DIR
                 (UTC) (F)     (DEG/KT/KT) (MB)    (FT/S) (FT/S/D)
BUOY 41004       0350   81 82  200/ 10/ 12 1019.2S   3/ 4   2/ 9
BUOY 41008       0350   77 78  240/ 10/ 10 1020.3R   2/ 9   2/130/ 9
FOLLY BEACH CMAN 0400   78     240/  3/  4 1020.1R
CAPERS NEARSHORE 0308   80     210/ 10/ 14 1019.4F
FRIPP NEARSHORE  0300   80     190/ 12/ 14 1019.2R


STATION/POSITION TIME  TEMP    WIND        PRES    WAVE   SWELL
                       AIR SEA DIR/SP/G            HT/PER HT/PER/DIR
                 (UTC) (F)     (DEG/KT/KT) (MB)    (FT/S) (FT/S/D)
5E ST. MARYS GA  0321      78                N/A     2/ 8
FRYING PAN BUOY  0350   81 79  180/  8/ 10 1020.5F   3/ 4   2/200/ 4
BUOY 41025       0350   81 81  220/ 14/ 16 1020.4F   3/ 9   2/130/ 9
CAPE LOOKOUT NC  0400   79     200/ 11/ 13 1019.9F
BUOY 41002       0350   79 80  250/ 16/ 17 1023.2S   4/ 8   2/120/ 8
BUOY 41010       0320   84 84  180/  8/ 10 1022.2R
ST AUGUSTINE FL  0400   72 71  180/ 11/ 11 1021.7R


$$



USA.gov is the U.S. government's official web portal to all federal, state and local government web resources and services.